Theta_e
329 333 334 332 332 331 328 327 325 325 327 326 325 324 326 332 325 322 337 343 332 331 334 332 333 337 337 336 335 337 339 337 338 340 342 343 343 345 346 345 344 344 343 345 349 353 356 359 360 360 361 363 364 363 363 363 363 362 363 363 361 360 360 359 356 351 345 339 334 333 334 335 335 337 341 345 346 348 349 351 351 349 350 351 349 346 343
328 330 331 331 332 330 329 330 328 327 328 326 326 327 329 331 330 330 336 337 334 333 333 331 333 335 335 335 337 336 336 336 336 336 338 340 341 345 347 346 346 347 350 353 354 357 360 360 360 359 360 361 362 362 363 363 363 362 361 362 362 361 360 359 358 357 353 347 341 337 335 335 335 336 339 343 346 347 350 352 352 350 351 353 354 352 350
326 328 330 330 331 330 328 328 330 329 328 326 326 327 328 330 330 331 334 336 336 335 336 336 336 336 336 337 338 336 334 335 335 334 334 336 339 343 346 348 348 346 347 353 357 359 359 360 360 359 358 359 360 361 362 361 362 361 361 361 361 361 361 360 360 359 356 352 348 343 338 336 336 337 339 342 344 346 348 351 352 351 351 353 355 356 356
324 327 329 329 330 330 326 325 329 329 327 326 327 327 328 329 329 329 329 330 333 337 338 337 336 336 336 337 337 335 333 333 333 333 334 334 337 342 345 344 344 344 343 341 343 349 353 356 358 359 358 358 359 360 360 360 360 360 360 361 361 361 361 361 362 360 358 356 353 348 343 340 339 338 339 341 343 345 347 349 351 352 351 352 353 355 357
323 326 328 328 328 326 323 325 329 330 329 330 328 328 330 330 330 329 326 328 336 340 338 336 335 335 336 335 335 334 334 334 333 333 333 333 334 338 340 338 339 348 353 348 342 346 353 356 357 357 358 359 358 358 358 358 359 359 358 359 360 361 361 360 362 363 361 359 356 352 348 344 342 342 342 342 343 343 344 347 350 352 351 350 351 352 354
322 324 326 327 324 322 324 329 331 331 331 330 329 328 330 330 331 331 331 335 340 339 337 336 336 335 336 335 334 333 334 334 334 333 334 335 336 334 335 339 343 347 353 354 351 350 352 355 356 356 355 356 358 358 357 357 358 358 358 358 359 360 360 360 361 363 363 361 359 356 353 350 348 347 344 343 342 343 345 347 348 350 350 350 350 351 352
322 323 325 325 323 324 328 330 331 330 330 330 330 331 331 330 330 331 333 336 339 339 337 336 335 335 334 334 334 335 335 335 334 333 333 333 334 335 338 346 353 351 348 350 349 347 349 349 350 353 355 356 356 357 357 356 356 356 357 357 357 358 359 360 361 363 363 363 361 359 358 356 354 351 349 346 346 346 348 349 348 349 350 351 351 351 352
322 323 323 324 326 328 328 330 330 329 330 330 328 329 331 331 332 333 334 334 337 338 335 334 334 334 334 335 336 335 334 333 332 334 338 338 338 345 351 352 352 346 340 342 342 341 345 346 342 346 351 353 355 355 356 356 356 356 357 356 356 356 357 359 360 361 363 363 362 361 360 359 358 356 354 351 350 350 351 351 352 351 351 352 354 353 354
322 321 321 323 325 325 327 329 330 330 331 330 329 327 328 331 331 332 333 334 335 333 332 336 337 334 336 338 338 337 339 342 344 348 353 353 352 355 356 353 352 347 344 347 345 341 345 349 347 348 349 349 352 353 354 356 356 355 355 355 355 355 355 358 359 360 362 363 363 362 361 361 360 358 357 356 354 354 354 354 356 355 353 353 353 354 355
321 321 321 322 322 322 325 327 329 331 330 330 332 327 328 333 333 331 333 338 339 336 334 339 342 341 341 339 341 346 349 351 355 355 355 356 355 355 353 356 360 356 349 348 343 340 346 350 349 349 346 344 350 353 353 354 355 355 355 355 355 355 355 357 358 359 361 362 362 362 362 362 361 360 359 358 358 358 357 356 356 357 357 356 355 355 355
319 320 321 322 321 322 327 329 329 330 329 332 331 325 329 340 342 337 337 338 339 340 341 343 344 343 340 339 345 351 351 352 354 353 354 355 354 352 354 358 358 349 343 348 351 353 360 364 364 362 354 344 344 350 355 355 353 355 355 354 356 355 354 357 358 358 360 360 361 362 362 362 363 361 360 359 359 359 358 356 356 358 359 360 360 359 358
319 320 320 321 322 325 328 329 328 329 331 333 329 324 330 341 343 339 340 340 341 344 346 346 344 342 341 343 347 349 348 351 353 351 352 353 352 351 352 354 351 343 344 359 365 364 365 366 366 366 362 352 346 347 353 355 354 355 355 354 355 356 355 357 358 358 360 360 360 363 363 363 363 362 360 360 360 360 359 358 358 358 360 362 362 362 363
318 319 319 320 324 326 327 328 331 332 329 329 328 329 335 341 340 339 340 341 343 345 345 344 344 344 344 344 346 347 348 351 351 350 351 352 352 351 349 350 352 350 352 363 367 364 363 360 360 363 362 356 352 350 352 355 355 355 356 355 355 356 356 357 358 359 360 360 361 363 365 366 365 364 362 361 361 361 362 362 361 360 360 361 362 364 365
316 319 318 319 325 327 326 327 331 332 331 333 333 335 338 338 338 340 340 340 342 343 343 343 343 343 343 344 346 348 348 349 349 349 351 351 353 351 349 351 355 355 357 362 364 364 364 362 362 368 368 362 358 355 354 357 357 356 357 357 356 356 357 357 358 360 361 360 362 364 366 367 368 367 365 364 364 363 364 365 364 362 362 361 361 362 364
314 317 318 320 326 328 326 328 331 331 333 335 335 336 337 337 338 340 339 340 341 341 341 342 342 342 344 345 345 346 347 347 348 348 349 350 351 351 351 353 356 355 357 361 361 363 364 360 356 360 367 368 363 359 357 360 360 359 357 358 358 357 358 358 359 361 363 364 364 365 367 368 368 368 366 365 366 366 365 366 366 365 364 364 362 363 364
314 316 318 321 324 325 325 328 329 327 329 332 332 334 336 336 336 337 339 340 340 340 340 340 340 342 344 343 343 344 345 346 347 347 348 348 349 350 351 354 355 353 355 359 360 362 364 359 352 354 364 368 364 363 363 363 361 360 359 359 360 360 359 359 359 361 364 367 367 367 368 368 369 369 367 366 366 367 366 366 366 366 366 366 365 364 364
317 318 319 320 321 323 323 325 325 324 325 327 329 331 333 333 333 335 337 338 338 339 339 339 340 342 342 342 342 343 344 345 346 346 346 347 349 350 350 352 352 351 353 358 360 361 361 358 355 359 367 367 365 367 368 365 364 363 359 359 363 363 362 362 362 361 364 367 368 369 369 370 370 370 369 367 366 367 367 366 366 366 366 367 366 365 365
319 318 319 320 321 322 322 321 322 322 323 325 327 329 330 330 331 333 334 336 337 339 340 340 341 341 340 341 341 342 343 344 344 345 346 347 348 348 349 350 349 349 354 358 358 358 359 357 357 361 366 366 366 369 368 366 366 365 362 361 363 365 365 366 365 365 365 366 369 370 369 370 371 370 369 368 367 367 367 367 366 365 365 366 367 366 366
317 317 319 320 320 321 320 319 320 321 321 324 326 326 327 327 328 330 332 334 334 337 339 340 341 340 340 341 341 342 344 344 344 345 347 348 348 348 348 349 348 350 353 356 356 356 356 355 355 358 360 361 362 363 363 362 364 365 366 366 366 366 368 368 367 367 367 367 368 369 369 369 369 369 369 368 368 368 367 367 366 365 365 365 366 366 366
316 317 319 319 318 319 319 318 319 320 320 323 325 324 324 325 326 328 330 332 332 335 338 340 340 340 341 341 342 343 344 344 344 345 346 347 347 347 348 348 348 350 352 353 353 355 354 353 354 355 356 356 357 357 358 360 362 364 365 366 367 367 367 368 368 368 368 367 367 367 367 368 368 368 367 367 367 368 367 366 366 366 365 365 364 364 364
316 316 317 317 317 317 318 318 318 319 321 322 322 322 322 323 324 326 327 329 331 333 335 338 340 340 341 343 343 343 343 344 344 345 346 346 346 347 349 349 348 349 351 352 352 353 352 351 352 353 354 354 355 355 356 359 362 363 363 364 365 365 365 366 367 367 366 366 366 365 367 367 366 366 366 365 365 366 366 365 365 365 365 365 365 364 364
315 316 317 317 317 317 317 317 318 319 320 321 321 321 322 322 324 324 325 327 329 331 333 336 338 339 342 343 343 343 343 344 344 345 346 346 347 348 349 350 350 349 349 350 351 351 351 350 351 351 351 352 353 354 356 358 361 363 363 363 364 365 363 364 365 365 365 365 364 364 365 366 365 366 366 366 365 366 366 365 365 364 365 365 365 365 364
315 316 316 316 317 318 317 317 317 318 319 319 320 320 321 321 323 323 324 325 327 329 331 333 335 338 340 342 343 344 344 344 344 345 346 346 347 348 348 349 350 350 350 350 351 351 350 350 349 350 350 350 351 352 354 357 359 361 362 362 363 364 364 363 364 363 363 364 364 364 365 365 365 365 366 365 366 366 366 365 364 364 364 363 364 364 364
314 315 315 316 316 317 317 316 316 317 318 318 319 319 320 320 321 322 322 322 324 326 329 330 333 335 338 341 343 344 344 344 345 345 345 345 345 346 347 348 349 349 349 350 351 351 351 350 349 349 349 349 350 351 352 353 356 358 359 359 359 361 362 363 363 362 363 365 365 365 365 365 364 365 366 365 364 364 365 365 364 365 364 363 363 363 362
314 314 315 315 315 316 316 316 317 317 317 318 318 318 319 319 319 320 321 320 321 323 326 328 330 333 336 340 342 343 343 344 344 345 345 344 343 344 345 346 347 348 348 349 350 351 351 351 350 350 349 348 349 349 350 352 353 354 356 355 355 356 358 360 361 361 362 364 365 364 364 363 363 363 364 363 362 361 361 359 359 359 360 360 361 361 361
314 314 314 315 315 315 316 316 316 316 316 316 317 317 318 318 319 319 320 319 318 320 324 327 328 330 334 338 341 342 343 343 343 344 345 345 344 344 345 345 346 348 348 348 349 349 350 350 350 350 350 349 348 348 348 349 348 349 351 351 351 351 353 356 358 357 354 355 359 361 360 359 359 359 360 360 360 358 354 350 347 346 347 347 346 345 346
314 314 314 315 315 315 315 316 316 316 316 316 317 317 317 318 319 320 321 319 317 318 323 327 328 330 334 337 339 341 342 342 343 343 344 344 344 344 344 345 346 346 347 347 347 347 348 348 348 348 348 348 348 347 348 348 347 348 348 348 349 349 348 349 349 346 341 340 344 347 348 348 348 349 350 352 351 349 347 346 344 343 343 340 335 331 331
313 313 313 314 314 315 315 315 315 315 316 316 316 317 317 318 318 320 321 320 318 318 323 328 330 331 334 336 337 340 341 341 341 342 342 343 343 343 343 344 344 344 345 345 345 345 346 346 346 347 347 347 347 347 347 348 349 349 349 349 349 350 348 344 339 336 334 334 335 337 340 341 341 341 343 344 343 342 343 343 342 343 345 341 334 330 328
313 313 314 314 314 314 314 315 316 316 316 316 317 317 317 317 318 319 320 320 320 320 322 327 330 331 333 334 335 338 341 341 340 341 342 342 342 342 342 342 343 343 343 343 343 343 343 344 345 345 345 346 347 347 346 346 345 346 347 348 349 348 346 341 334 330 330 331 331 334 338 340 340 340 342 342 342 343 344 341 339 342 344 341 337 336 335
313 313 314 315 314 314 314 315 315 315 316 316 316 317 317 318 318 319 319 321 321 321 322 326 329 330 332 333 333 335 338 340 339 340 341 341 341 341 341 341 341 341 341 341 341 341 341 342 342 343 343 345 346 346 347 345 343 341 342 342 343 344 344 341 338 335 333 333 335 336 338 340 341 341 341 341 341 342 344 342 340 341 343 341 340 341 339
313 314 315 315 315 315 315 315 315 316 316 316 317 317 317 318 318 319 320 321 322 324 325 326 328 330 331 333 332 332 335 338 339 339 340 340 339 340 340 340 340 339 339 339 339 339 339 339 340 340 342 343 344 345 346 346 345 344 342 340 340 342 343 343 343 342 340 340 342 342 342 342 342 340 340 341 341 340 341 341 340 340 340 339 339 339 338
315 315 316 316 316 316 316 316 316 316 316 317 317 317 318 318 318 318 319 319 321 325 328 328 328 330 331 332 332 332 333 335 336 337 338 338 338 338 338 338 337 337 337 337 337 337 337 337 337 338 339 340 341 342 344 345 345 345 344 343 342 342 342 342 342 341 342 342 342 342 342 342 342 340 340 340 340 340 339 339 339 338 338 338 338 337 336
317 317 318 317 316 316 317 317 317 317 317 318 318 318 319 319 318 319 319 318 320 325 329 329 328 329 330 331 331 332 332 333 333 334 335 335 335 335 335 335 335 335 335 335 335 336 336 336 336 336 337 339 339 340 341 342 343 343 344 343 342 341 342 343 342 341 342 342 340 340 341 341 340 340 339 339 339 340 339 338 338 338 337 337 337 337 336
320 319 319 318 317 317 317 317 317 318 318 318 318 319 319 319 319 319 319 319 321 326 329 329 329 330 330 330 331 331 331 332 333 333 333 333 333 333 332 332 333 333 333 333 333 334 334 335 335 335 335 337 338 338 339 340 341 341 341 341 340 340 341 342 341 341 342 341 340 340 340 340 340 339 339 339 340 339 339 338 338 338 337 337 337 336 336
320 320 320 320 319 319 319 319 318 318 319 319 319 320 319 319 320 320 320 321 324 327 329 329 330 330 330 330 330 330 331 332 332 331 331 331 331 331 331 330 330 330 330 330 331 332 333 333 333 334 334 335 336 337 337 337 338 338 338 338 337 338 339 339 339 340 340 340 340 339 339 339 340 339 339 339 339 339 338 338 338 337 337 337 336 336 336
317 319 319 320 320 320 321 320 320 320 320 319 319 320 320 320 321 321 321 322 326 328 328 329 330 330 330 330 330 330 330 330 330 330 329 329 329 329 329 329 328 328 328 328 328 330 331 331 332 331 331 333 335 336 336 335 335 336 336 336 335 336 336 336 336 336 337 337 336 337 337 337 337 338 338 337 337 337 337 337 336 336 336 336 335 336 336
314 315 316 317 318 320 321 321 321 322 321 320 321 321 322 322 323 324 324 325 327 328 327 328 329 329 328 328 328 328 327 327 327 327 327 327 327 327 327 326 325 325 324 324 325 327 328 328 328 329 329 331 332 334 334 334 334 333 334 334 333 333 334 333 333 333 334 333 333 333 334 334 334 334 334 334 334 334 334 334 334 334 333 333 333 333 333
312 312 313 313 315 316 317 318 320 321 322 322 323 325 326 325 325 325 326 326 327 328 327 327 327 327 326 326 325 325 325 325 325 324 324 324 325 324 324 322 322 321 321 322 323 325 325 326 326 327 327 328 330 331 332 332 332 332 331 332 331 331 331 331 331 331 331 331 331 330 330 330 330 330 330 330 331 331 331 331 331 331 331 330 330 330 330
310 311 311 311 312 312 313 314 316 317 318 318 320 323 325 325 325 326 326 327 327 327 326 326 325 324 324 323 322 322 322 321 321 321 320 320 320 320 319 318 318 318 319 320 321 323 323 324 325 325 325 325 326 328 329 329 329 329 329 329 330 330 330 330 330 329 329 329 329 328 327 326 326 326 327 327 328 328 328 329 329 329 328 328 328 328 328
310 310 309 309 310 310 311 311 311 312 313 314 314 316 318 320 321 322 323 324 324 324 324 324 323 322 322 321 321 320 320 319 318 318 317 317 317 317 316 316 316 316 317 319 320 321 322 323 323 323 323 323 323 324 324 325 326 326 326 326 326 327 327 327 327 327 327 327 327 327 326 325 325 325 325 326 326 327 328 328 328 328 328 328 328 328 327
310 309 309 308 308 309 309 309 309 309 309 310 311 311 313 314 315 316 316 317 318 318 320 320 320 319 318 318 318 318 317 316 316 315 314 314 314 314 314 314 314 315 315 317 317 318 319 320 320 321 321 321 321 321 321 322 322 322 322 323 323 323 323 324 324 324 324 324 324 324 324 323 323 324 325 325 325 326 326 326 326 326 326 326 326 326 326
311 310 309 308 308 308 308 308 308 307 307 308 309 309 310 310 311 311 311 311 312 313 314 315 315 315 314 314 314 313 313 312 312 311 311 311 312 312 313 313 313 313 314 315 316 316 317 317 318 318 319 319 320 320 320 320 320 320 320 320 320 320 320 320 320 320 321 321 321 321 321 321 321 321 322 322 323 323 324 324 324 323 323 323 323 323 323
310 311 310 309 308 307 307 307 306 306 306 307 307 308 308 308 308 308 308 308 309 310 310 311 311 312 312 312 312 311 311 310 309 309 308 308 308 309 310 310 311 312 313 313 314 314 314 314 314 315 316 317 318 318 318 318 318 318 317 317 318 318 318 318 318 318 318 318 318 318 318 318 318 318 319 319 320 320 321 322 322 321 321 321 321 321 321
310 310 310 309 308 307 307 307 306 306 306 306 306 306 306 306 306 306 307 307 308 308 308 308 308 308 309 309 310 310 311 310 310 310 309 309 309 308 307 307 307 308 310 312 312 312 312 313 313 313 314 314 315 316 316 316 315 315 316 315 315 316 316 316 316 316 316 316 316 316 315 315 315 315 315 316 317 318 318 319 319 319 319 319 319 320 320
310 310 310 309 309 308 307 307 306 306 306 306 305 305 305 305 305 306 306 307 307 307 307 307 307 307 306 306 307 307 307 308 308 308 309 310 310 310 309 308 306 305 305 308 309 310 310 310 311 311 312 312 313 313 313 313 313 313 313 313 313 314 314 314 314 314 314 314 314 314 314 314 313 313 313 313 313 314 314 315 316 316 316 317 317 318 319
310 310 310 310 309 309 308 308 307 307 306 305 305 305 305 305 305 305 305 306 306 306 306 306 306 306 306 306 306 306 306 305 305 305 307 309 310 310 310 310 308 305 303 303 305 307 308 308 309 310 310 311 311 311 311 311 311 311 311 311 311 311 311 311 311 311 312 312 312 312 312 312 312 312 311 311 311 311 311 311 312 312 312 312 313 314 315
309 309 309 309 309 309 309 308 308 308 307 307 306 306 305 305 305 305 305 305 305 305 305 305 305 305 305 306 305 305 305 305 304 304 305 305 306 307 308 309 309 307 304 302 303 305 306 307 307 308 309 309 309 309 309 309 309 309 309 309 309 309 309 309 309 309 309 309 310 309 310 310 309 309 309 309 309 309 309 309 309 309 309 309 309 310 311
309 308 308 308 309 309 309 308 308 308 308 308 308 307 307 307 306 306 305 305 305 305 305 304 304 304 304 305 305 305 305 304 304 304 304 304 304 303 304 305 306 307 305 303 304 305 306 306 306 307 307 308 308 307 308 308 307 307 307 308 308 308 308 308 308 308 308 308 308 308 308 309 308 308 307 307 307 307 306 306 307 307 307 307 307 307 307
308 308 308 308 307 307 307 307 307 307 307 307 307 307 307 307 307 306 306 305 305 305 305 305 304 304 304 304 304 304 304 304 304 304 304 304 304 303 303 303 304 305 305 304 304 305 306 306 306 306 306 307 307 307 307 307 307 306 306 306 306 306 307 307 307 307 307 307 307 308 308 308 308 308 307 307 307 307 306 305 305 305 305 305 306 306 306
307 307 307 307 307 306 306 306 306 306 306 306 306 306 306 306 306 306 306 306 305 305 305 304 304 304 304 304 303 303 303 303 303 303 303 303 303 303 303 303 303 304 304 304 303 303 303 305 305 305 305 306 306 306 306 306 306 306 305 305 305 305 306 306 306 306 306 306 306 307 307 307 308 308 308 308 308 307 306 306 305 304 304 304 304 304 304
306 306 306 306 306 305 305 306 305 305 305 305 305 305 305 305 304 304 305 305 305 305 305 304 303 303 304 304 303 303 302 302 302 302 302 302 302 302 302 302 302 302 302 303 303 302 301 302 303 304 304 304 304 304 304 304 304 304 304 304 303 303 304 304 305 305 305 305 305 305 305 306 306 306 306 307 306 306 306 305 305 304 303 302 302 302 301
305 305 305 305 305 305 304 304 305 304 304 304 304 304 304 304 304 304 304 303 304 304 304 304 303 303 302 302 302 302 302 302 301 302 301 301 301 301 301 301 302 301 301 301 302 301 301 301 302 302 303 303 302 302 303 303 303 303 303 303 302 302 302 302 303 303 304 304 304 304 304 304 304 304 304 304 304 304 304 304 304 303 303 302 302 301 300
Wind_Speed
16 14 11 6 8 9 9 17 23 24 25 26 22 16 14 11 7 7 8 7 8 10 11 13 12 7 5 8 11 14 18 17 13 15 20 23 20 17 18 19 18 20 25 27 28 31 34 36 36 34 32 34 36 36 35 35 36 35 36 39 41 42 43 43 43 44 45 46 46 47 47 47 46 45 44 43 42 40 40 39 39 38 37 38 38 40 40
17 17 15 12 9 11 13 13 21 25 23 25 24 19 17 15 9 9 10 6 5 10 11 11 13 12 11 16 17 15 13 11 13 13 14 18 20 18 17 19 20 19 18 19 22 28 31 32 32 31 31 32 34 34 33 34 36 35 35 39 41 42 44 45 44 42 43 44 44 45 46 46 46 46 45 44 43 42 42 41 40 39 37 36 37 39 40
13 16 17 15 12 11 13 15 16 22 23 25 24 20 19 15 11 12 13 9 6 8 9 9 11 10 11 15 15 16 14 10 13 12 6 9 20 25 23 21 20 18 17 16 19 23 26 28 29 29 30 31 31 32 32 33 35 35 35 37 41 43 43 43 43 42 42 43 43 44 45 46 46 46 45 45 44 44 44 43 42 40 39 38 37 38 39
9 11 16 17 11 8 11 16 17 15 16 19 21 19 17 15 14 14 13 12 8 7 11 11 10 9 10 10 10 11 12 9 8 7 6 9 11 20 23 21 17 16 19 19 19 22 24 26 28 28 29 30 29 30 31 31 32 33 34 36 40 43 43 41 42 44 44 44 44 43 44 44 45 45 45 45 45 45 45 44 43 42 41 41 40 38 38
9 11 14 15 8 4 9 13 12 8 8 13 18 20 19 17 15 13 9 8 9 8 11 11 9 9 9 6 6 8 8 8 6 5 6 4 3 9 17 19 14 15 21 19 17 19 20 21 24 24 25 27 29 29 29 30 30 32 34 35 36 40 43 43 43 44 44 44 44 44 44 44 44 45 45 46 46 46 46 45 44 44 44 44 43 42 41
9 12 13 12 10 7 8 9 8 7 9 10 9 14 21 21 15 12 10 9 8 7 9 9 7 7 7 7 8 8 7 7 7 4 2 2 1 1 5 9 9 10 15 16 11 10 12 14 17 20 22 24 27 28 27 28 31 32 34 35 34 37 41 44 44 43 44 45 45 45 44 44 44 45 46 46 46 46 46 45 45 46 46 46 45 45 44
7 8 9 11 11 9 5 4 9 12 9 6 9 11 18 24 18 13 13 12 9 7 6 6 6 5 7 8 8 8 8 8 6 2 0 2 3 3 1 6 11 11 10 9 5 3 6 9 11 14 18 20 22 24 26 28 31 32 34 36 36 35 38 42 44 43 43 44 44 44 44 44 44 45 46 47 46 46 45 45 46 47 47 47 47 47 46
4 4 8 10 8 8 7 8 13 14 7 5 9 10 4 11 10 6 7 10 12 9 4 4 6 7 9 10 8 6 5 4 1 2 4 3 1 5 10 11 9 5 3 2 1 3 6 9 8 8 12 16 18 22 24 26 30 32 33 35 37 37 37 40 43 43 42 42 43 44 44 44 45 46 46 46 46 45 45 45 45 46 47 47 47 47 47
4 5 7 8 8 9 10 11 12 8 2 4 7 5 1 2 4 6 5 4 6 8 8 6 7 8 9 8 7 4 4 4 5 9 14 14 13 15 14 11 7 3 1 1 4 6 6 7 7 7 9 11 15 19 23 24 27 31 33 35 38 39 37 37 40 42 42 42 42 43 43 44 46 46 46 45 44 44 44 44 44 45 47 47 47 48 48
5 7 6 8 11 9 6 10 9 3 2 5 5 1 3 3 2 2 4 6 7 3 7 8 11 9 6 4 6 8 10 11 12 14 16 16 14 13 12 11 8 1 3 3 4 4 3 4 6 8 11 13 13 16 21 24 26 28 33 36 37 38 37 36 37 41 41 41 41 42 43 44 45 45 44 43 43 43 43 43 44 44 44 45 46 47 48
7 7 5 7 10 5 4 12 13 8 5 7 5 2 2 6 14 15 6 7 8 7 7 10 9 6 6 4 6 11 11 11 13 13 13 13 12 11 11 8 3 4 6 6 5 4 3 3 4 4 9 14 15 15 17 22 25 28 32 34 35 37 37 35 34 38 40 40 41 42 43 43 43 42 42 42 41 42 42 43 43 41 39 39 41 43 45
7 7 6 5 5 3 12 9 9 11 9 8 7 7 2 11 18 20 14 7 9 12 12 9 5 3 2 3 6 10 11 10 13 12 11 12 11 10 10 8 7 8 9 7 5 4 4 7 7 4 6 11 16 17 16 19 24 26 29 31 32 33 35 34 33 35 37 39 40 40 40 41 41 40 39 40 40 40 40 41 42 40 38 37 37 38 39
8 8 8 5 4 6 16 11 10 7 5 10 7 5 2 11 14 15 15 13 15 15 12 7 4 5 8 9 9 12 12 12 13 12 11 12 10 9 10 11 10 9 8 6 5 5 7 7 5 5 6 7 12 17 17 17 21 22 23 26 28 30 32 33 32 33 35 37 38 38 37 36 37 38 37 37 37 37 37 38 38 38 38 36 35 35 35
8 6 7 5 3 8 17 14 22 23 6 7 2 4 8 13 15 16 14 14 14 14 13 11 10 10 12 12 12 13 14 13 14 13 13 12 12 11 11 11 9 8 7 7 6 7 7 6 4 4 5 6 9 14 15 15 17 17 17 19 24 28 29 30 31 30 32 35 35 35 34 33 34 34 34 33 33 33 33 33 33 34 35 35 34 34 33
7 7 8 5 2 8 18 14 15 16 8 3 4 8 11 16 20 18 16 15 13 12 12 12 12 12 12 13 13 14 13 13 13 13 13 13 13 12 11 10 9 9 8 8 8 7 8 8 7 5 3 3 6 8 10 10 11 14 14 14 19 24 26 27 29 28 28 31 33 32 32 32 31 31 31 30 30 30 31 30 29 30 31 32 33 33 32
6 7 4 1 2 5 12 13 8 7 9 8 8 8 9 14 18 17 16 16 14 13 11 10 11 11 12 12 13 14 13 12 13 13 13 14 13 11 10 10 10 9 8 9 9 6 8 11 9 4 1 1 2 4 7 9 10 13 15 12 13 20 24 25 27 27 25 25 28 29 29 29 29 29 29 29 29 28 29 29 29 29 29 29 30 31 31
4 5 3 3 5 6 8 14 10 8 10 10 10 10 10 12 14 14 14 14 14 13 12 9 9 10 12 12 12 13 13 13 13 13 13 13 12 10 9 10 10 8 6 7 7 5 7 11 7 2 6 5 5 6 8 11 12 14 16 14 10 14 20 21 23 25 23 22 23 25 25 25 27 27 27 27 28 28 28 28 28 29 28 27 28 29 29
6 7 7 6 7 5 9 14 11 9 9 10 11 10 10 11 12 12 12 14 14 13 11 9 8 9 10 11 11 11 12 12 13 13 12 12 11 10 10 10 9 7 6 5 4 4 6 9 6 2 6 6 6 7 6 9 11 13 14 13 11 12 15 17 18 21 21 21 21 21 22 22 23 24 24 24 25 26 26 27 27 27 27 26 26 27 27
6 4 3 3 6 6 9 11 10 8 8 8 10 9 8 9 11 11 11 13 14 14 11 9 8 8 9 9 10 10 10 10 11 11 10 10 10 9 9 9 8 6 6 5 4 4 4 6 7 2 2 2 3 5 5 3 5 10 13 11 9 11 13 13 15 18 19 19 19 20 20 20 20 21 21 21 22 24 25 24 24 24 24 24 25 25 25
7 7 8 11 15 14 11 9 9 10 10 8 8 9 9 10 10 11 12 12 13 15 14 10 8 8 9 8 8 8 8 9 9 9 9 9 9 9 9 8 7 5 4 3 3 3 3 4 7 5 2 2 2 4 5 5 3 7 11 10 8 10 11 11 12 15 17 18 19 19 19 19 19 19 19 18 20 22 22 21 22 23 23 23 23 22 21
7 9 13 14 15 15 12 10 10 10 9 9 8 9 11 11 12 13 14 13 13 14 15 13 11 10 10 9 8 9 9 8 7 8 8 7 7 7 7 7 5 3 3 3 3 3 3 4 4 4 4 3 4 3 3 8 7 4 7 9 8 8 10 11 11 13 15 17 17 17 18 17 17 17 18 17 17 19 20 20 20 21 21 21 21 20 19
6 7 9 8 8 9 10 9 8 8 9 11 13 12 12 12 13 14 15 16 15 15 15 15 14 13 12 11 10 10 9 7 6 6 6 6 5 5 5 6 5 3 2 3 3 2 3 4 4 3 4 4 5 5 4 8 8 6 7 9 8 9 9 9 11 13 13 14 16 16 15 15 16 17 16 16 16 18 21 21 21 22 21 20 19 18 18
8 11 13 13 13 11 12 12 10 10 11 12 15 16 15 13 12 13 14 16 17 17 17 17 15 14 13 12 11 9 8 6 5 4 4 4 4 4 3 3 5 5 4 3 3 3 3 4 4 5 6 6 5 4 6 7 8 9 9 8 9 12 12 10 12 15 13 12 16 17 14 13 16 18 17 17 16 16 17 17 19 21 22 22 21 20 18
14 18 20 18 15 14 16 16 14 12 12 13 15 18 18 16 15 15 14 15 16 17 18 18 17 15 13 12 10 9 7 5 4 4 3 2 2 2 2 2 1 2 3 3 5 6 6 6 6 6 6 7 7 6 6 7 8 9 8 7 9 12 13 12 13 15 14 14 18 19 15 13 15 15 13 12 13 13 14 14 15 17 19 21 23 24 24
17 20 21 20 18 18 19 19 17 15 13 13 15 18 19 19 20 20 19 18 17 16 17 19 19 16 13 12 10 8 6 5 4 3 2 1 1 1 2 2 2 3 3 3 4 7 7 8 9 9 8 8 9 8 7 7 9 9 8 7 7 8 11 13 12 12 13 14 17 17 16 14 13 13 11 10 9 7 9 11 13 15 17 19 21 23 24
21 22 22 23 23 22 20 19 19 18 15 15 17 18 19 20 21 21 22 23 21 18 17 18 20 18 14 12 10 8 7 6 4 1 1 3 4 4 3 4 4 4 5 5 6 7 7 6 8 10 10 10 10 8 6 6 9 11 10 9 8 7 8 12 12 10 10 11 12 14 13 13 12 12 11 11 10 7 5 3 4 6 9 11 12 13 15
26 24 22 21 21 22 22 20 19 19 18 17 17 18 17 17 17 17 18 21 22 20 17 17 20 18 14 11 11 8 6 6 5 3 3 4 5 6 6 6 6 5 6 7 7 6 6 6 6 8 10 11 12 11 8 8 11 12 11 10 11 12 11 11 12 10 9 9 11 12 11 10 9 8 7 7 7 8 8 6 4 2 2 5 5 5 5
31 29 27 25 24 24 23 21 21 22 21 21 20 20 19 19 18 17 17 19 20 18 16 17 20 17 12 11 11 8 6 6 6 5 4 5 7 7 7 7 7 7 7 8 8 7 8 8 7 8 10 11 12 12 9 7 10 12 12 12 13 13 13 11 11 12 11 11 12 13 13 12 12 12 11 9 6 6 6 6 6 4 1 4 4 4 4
33 32 32 32 32 30 27 25 24 22 21 22 22 22 21 21 21 20 19 18 18 17 16 18 19 15 10 10 10 8 7 7 6 6 5 6 8 9 9 8 8 8 8 9 8 7 8 8 7 8 9 10 12 13 10 6 9 12 12 11 11 12 13 13 13 13 14 14 13 14 14 13 11 11 10 10 9 7 4 2 4 4 2 4 4 5 7
32 31 31 32 32 31 29 28 27 26 24 23 23 23 23 22 22 22 19 17 17 16 16 18 19 14 10 9 7 6 6 6 7 7 7 8 9 9 9 9 9 9 9 9 9 8 7 6 7 9 9 8 10 14 13 9 8 9 10 10 9 11 14 15 13 12 13 13 12 12 11 11 11 10 8 7 7 6 4 2 3 3 2 2 3 5 9
29 28 29 30 30 31 30 29 28 27 26 25 24 24 24 24 24 23 19 16 17 16 16 17 17 14 10 6 3 2 2 5 8 8 9 11 11 11 10 10 11 13 13 13 12 11 9 6 5 7 7 7 9 13 15 13 12 11 12 12 11 12 14 15 13 10 10 10 10 10 9 8 7 7 7 6 5 4 4 2 1 1 1 2 3 7 10
28 25 26 28 28 29 29 28 27 27 26 25 25 25 24 25 26 24 20 18 18 18 16 16 16 14 10 6 3 2 2 4 7 8 10 13 14 13 12 13 13 14 14 13 14 15 15 11 6 4 5 6 7 10 12 13 13 12 12 12 11 11 12 12 11 10 9 8 9 9 8 6 5 5 6 6 3 1 1 1 1 1 2 5 5 7 11
25 22 22 26 28 28 28 27 27 27 26 26 26 25 24 25 25 24 21 20 20 20 18 17 17 15 11 7 5 5 5 8 9 10 12 16 17 17 16 15 14 14 13 12 13 15 16 15 12 8 5 6 7 8 10 12 11 10 10 10 8 8 10 12 13 12 10 8 8 7 6 5 5 5 5 5 4 3 3 3 3 3 5 7 7 9 13
19 23 22 22 22 25 27 28 28 28 27 26 26 26 25 25 25 24 22 21 22 22 19 17 17 15 11 8 7 7 9 12 13 13 14 16 18 19 19 17 17 17 15 13 13 15 16 17 15 13 10 8 9 10 11 11 10 8 8 8 6 7 8 10 14 15 13 11 9 7 6 5 5 6 5 4 4 4 4 5 5 5 6 8 8 10 14
5 12 18 20 20 21 23 23 24 25 26 25 25 25 26 26 25 23 23 24 25 24 21 19 18 16 13 11 12 13 13 14 16 17 18 18 19 20 21 19 19 18 17 14 13 13 15 16 16 14 12 11 12 14 14 14 11 10 10 11 9 7 6 7 9 12 11 10 9 8 7 6 4 5 7 7 6 6 7 7 6 6 8 9 7 8 10
35 24 14 6 4 12 18 21 23 23 23 25 25 23 24 25 23 22 24 24 24 25 23 20 17 17 16 16 17 17 16 17 18 19 20 20 21 21 21 20 19 18 18 17 15 13 13 14 15 15 14 13 13 14 15 14 13 12 12 13 13 13 11 11 11 11 11 11 10 8 8 7 5 5 8 9 7 6 7 7 6 7 9 8 6 5 7
47 44 41 36 27 17 6 5 12 14 15 18 19 18 19 20 20 21 23 23 23 24 23 18 18 20 19 18 18 18 18 19 19 19 19 19 18 19 20 20 19 17 18 18 16 15 15 16 16 17 17 16 15 15 16 16 15 13 13 13 13 13 14 14 14 13 13 13 12 10 11 11 10 8 8 8 5 4 4 4 4 6 7 5 5 6 7
50 48 47 47 44 40 34 26 18 13 9 6 7 12 17 18 16 16 16 16 17 21 22 22 24 23 21 21 22 21 20 21 21 20 19 18 17 18 20 21 19 19 20 18 16 16 17 18 19 20 20 18 16 17 18 19 17 15 14 13 14 14 15 15 15 15 15 14 14 14 13 13 12 9 7 6 4 3 3 2 1 3 6 7 8 9 10
51 50 51 52 50 47 45 43 39 35 33 31 26 20 18 17 13 12 13 12 15 23 29 30 29 28 27 27 26 25 23 23 23 24 23 22 22 23 24 24 22 21 21 19 18 19 19 19 20 22 22 20 17 16 17 18 19 18 18 17 16 17 17 16 16 16 16 16 16 16 15 16 15 14 12 10 8 7 6 5 3 4 6 9 11 11 12
46 47 49 50 50 49 47 47 47 48 47 45 44 41 37 33 30 28 26 23 22 28 35 36 34 33 32 29 27 27 25 24 25 26 26 26 27 28 28 26 24 23 22 21 20 20 20 20 21 23 23 22 20 18 17 17 18 19 20 19 19 19 19 18 17 16 17 17 17 16 16 17 17 17 17 16 14 12 11 10 9 9 9 9 10 11 11
40 42 44 45 46 46 45 45 47 51 50 47 47 49 49 49 47 44 38 32 29 32 39 41 39 37 36 33 31 30 29 28 28 28 28 29 30 30 29 27 23 22 22 21 21 20 21 21 22 22 22 22 21 21 20 20 19 18 19 19 20 21 21 20 19 18 17 17 18 18 17 17 16 16 16 16 16 15 14 14 13 12 11 11 10 10 10
37 38 39 40 41 42 43 44 47 49 49 48 49 51 52 52 51 48 44 40 39 40 43 44 42 39 38 37 35 33 32 31 31 31 31 31 31 31 30 27 23 20 21 21 21 21 21 21 21 20 19 20 20 20 20 21 22 21 21 20 21 22 23 22 22 21 20 19 19 20 19 17 16 16 17 17 17 16 15 15 14 14 13 12 11 10 11
36 37 37 37 37 38 39 42 44 46 46 47 46 46 47 48 47 45 43 41 41 41 42 43 42 40 38 37 35 34 33 32 32 32 33 31 29 28 27 24 21 20 20 21 22 22 22 22 21 20 17 16 16 17 19 22 23 23 22 22 22 22 23 23 22 22 22 21 21 21 21 20 19 19 19 19 19 18 17 17 17 17 16 15 14 13 13
34 35 36 35 35 35 36 37 39 41 41 42 42 42 42 42 41 39 38 38 37 37 38 38 39 39 38 37 36 35 33 31 30 31 31 31 29 27 24 21 19 19 19 20 21 21 21 20 20 19 18 17 16 16 18 20 22 22 22 22 21 21 21 22 22 23 23 22 21 20 20 20 21 21 21 21 21 20 20 20 19 19 18 18 17 17 16
30 32 33 32 32 33 34 34 35 35 35 36 37 37 38 38 37 35 34 34 33 33 34 34 34 34 34 33 33 33 31 30 28 27 28 28 27 25 23 21 19 17 17 18 20 20 20 19 17 17 18 19 19 18 18 19 20 20 21 21 21 20 21 21 22 22 22 22 22 21 20 19 19 20 20 20 20 21 21 21 20 20 20 20 19 19 19
26 27 29 29 30 30 29 30 30 30 31 32 33 33 33 33 33 32 32 32 31 31 30 30 31 30 29 28 27 26 27 27 26 25 24 24 22 21 20 21 20 17 15 16 18 19 19 18 17 17 17 17 18 19 19 19 19 20 21 21 21 22 21 21 21 21 20 20 20 20 19 19 19 19 18 18 18 19 19 19 19 19 20 21 21 20 20
22 24 25 25 25 25 26 26 27 27 27 27 28 27 27 27 28 28 28 28 28 27 27 27 27 27 26 25 24 23 22 23 23 22 20 19 17 17 18 18 18 18 16 16 17 18 18 18 18 19 19 18 18 19 19 19 19 19 20 21 21 21 21 21 20 20 19 19 19 19 18 18 18 18 18 19 19 18 18 17 17 17 18 20 20 21 21
19 20 21 21 21 22 22 23 24 25 25 24 23 22 22 23 23 24 23 24 24 24 23 23 23 23 22 22 22 21 20 21 21 20 18 16 15 14 14 14 15 16 16 16 16 18 19 19 19 19 19 19 20 20 19 19 19 19 19 20 21 21 20 20 19 19 18 18 18 19 19 18 17 17 17 18 18 17 17 17 17 17 17 18 19 20 20
17 17 17 18 19 20 20 20 21 22 22 21 20 19 18 19 20 20 20 20 21 22 21 21 21 21 20 20 20 19 18 18 17 16 15 15 15 15 14 14 14 15 16 16 14 15 17 19 20 19 18 18 19 18 18 18 19 19 18 18 19 19 19 19 18 17 17 16 16 17 18 19 18 18 19 19 18 17 17 17 16 16 16 17 18 19 20
15 15 15 16 17 18 18 18 18 18 18 18 18 17 16 17 18 19 18 17 16 17 18 18 19 18 18 18 18 17 16 15 15 14 14 14 14 14 14 14 15 15 15 15 15 13 12 15 17 19 18 17 17 17 17 17 17 18 17 16 15 17 19 19 17 16 16 16 14 13 14 14 14 13 13 14 14 13 13 14 14 13 13 15 17 17 18
14 14 14 14 15 15 16 16 16 16 16 16 16 15 15 15 15 16 17 17 17 16 15 15 16 16 16 15 15 15 15 14 14 14 13 13 13 13 13 14 14 15 15 15 15 15 14 14 16 18 18 17 16 17 17 16 16 16 17 15 13 14 16 17 17 16 16 16 14 13 13 13 13 11 10 10 11 10 11 13 14 14 14 15 16 16 15
13 13 13 13 13 13 14 14 14 14 14 14 14 14 14 14 13 13 13 14 15 15 15 14 15 15 15 14 13 13 13 14 14 14 13 13 13 13 13 14 14 15 15 15 15 16 16 16 17 17 17 17 16 16 16 15 15 15 16 16 15 15 15 16 17 16 15 15 15 14 13 13 14 14 13 13 13 12 13 13 13 14 14 15 15 16 16
Wind_Direction
251 244 245 274 315 310 256 224 213 199 196 206 211 211 199 187 193 192 166 165 168 148 142 140 137 141 117 110 123 109 95 98 109 122 123 122 129 140 142 149 169 193 198 195 195 197 198 199 199 202 205 207 208 208 208 206 206 207 206 206 208 209 211 215 217 217 218 221 223 224 224 226 226 225 223 223 222 222 224 227 229 229 228 228 232 236 237
252 252 256 259 274 301 305 267 222 202 195 201 208 216 206 191 197 194 171 176 162 140 146 145 141 142 108 95 101 92 90 118 128 133 144 143 142 139 137 153 177 196 196 190 191 195 195 195 198 203 206 208 209 208 207 207 207 208 208 208 209 209 212 216 216 216 217 219 222 223 223 225 227 226 224 223 222 221 221 225 229 231 229 226 228 233 235
256 259 256 247 248 268 294 295 250 209 195 198 203 213 212 194 193 197 180 177 173 141 131 113 113 122 104 98 100 81 68 92 118 123 126 134 142 142 138 145 161 174 182 187 194 198 198 199 201 205 208 209 209 208 208 208 208 207 209 211 211 211 213 215 215 216 218 219 221 222 222 224 226 226 224 223 223 223 222 223 226 230 231 227 226 230 234
257 264 250 232 232 265 281 288 269 226 205 204 198 203 216 200 185 193 189 181 170 123 110 107 100 92 82 77 80 76 68 68 92 104 54 50 113 137 141 143 144 157 172 182 195 203 206 206 206 208 210 209 208 208 208 208 207 207 209 212 214 213 213 214 215 216 218 219 220 222 223 223 224 225 225 223 223 223 223 223 223 226 230 230 228 227 231
254 261 254 229 215 260 264 262 256 238 248 237 202 193 210 211 194 192 192 183 174 140 121 128 131 117 107 96 81 76 70 66 77 84 62 51 111 133 143 151 156 173 178 172 180 195 201 204 206 208 209 209 209 210 209 208 207 207 209 212 215 215 213 214 216 216 216 218 220 222 224 224 224 224 224 224 223 223 224 224 223 224 228 231 231 229 229
254 257 260 235 212 218 235 243 241 243 265 260 221 200 205 206 203 197 182 172 176 150 114 114 128 119 112 114 103 91 84 88 100 110 99 130 171 78 147 148 126 139 158 154 157 179 191 200 204 205 207 210 212 211 209 210 210 209 210 210 213 217 215 214 216 216 215 217 219 221 223 224 223 223 224 225 225 224 224 223 223 225 227 229 231 232 230
250 252 248 228 219 216 220 259 254 248 261 291 306 276 216 195 195 195 177 157 139 128 116 119 134 132 124 118 103 98 99 91 90 107 266 250 245 261 178 112 92 91 115 129 128 149 184 202 205 202 204 206 209 211 211 211 211 211 212 211 212 217 218 214 214 215 215 215 218 220 222 223 223 224 225 226 226 224 223 223 224 226 227 228 230 232 232
256 255 230 220 227 223 217 236 236 232 248 272 285 297 239 173 163 148 152 145 129 125 126 109 118 135 131 115 98 90 92 79 41 16 20 357 31 84 86 99 104 83 65 101 241 247 217 213 209 204 207 205 205 209 211 212 213 213 214 214 213 216 219 216 213 214 215 215 216 219 221 222 223 224 225 226 226 225 223 223 225 226 227 229 230 232 233
281 286 249 225 228 222 219 235 235 224 249 278 268 284 315 166 148 126 135 141 124 146 167 136 106 121 123 110 111 105 59 40 47 51 47 45 53 62 69 80 83 57 355 234 254 262 248 226 218 216 215 211 210 211 210 212 215 214 215 217 215 215 219 218 214 214 216 215 216 218 220 222 224 225 225 225 225 225 223 223 225 227 228 230 232 233 234
290 284 262 224 214 203 210 234 237 229 253 285 315 319 201 245 327 57 120 92 61 98 160 119 87 101 127 133 109 76 49 45 49 46 45 47 47 47 54 69 78 94 257 283 297 301 300 262 244 231 218 211 211 214 213 213 215 215 217 219 217 216 218 220 217 215 216 217 218 219 221 224 226 226 226 227 227 226 226 226 227 229 231 232 233 235 236
282 273 272 237 206 186 263 233 200 163 197 252 279 194 165 360 3 5 21 112 84 41 57 75 82 124 158 143 77 46 35 43 43 35 35 38 39 37 44 56 46 329 341 358 3 10 347 264 241 236 225 217 212 210 212 215 216 217 219 220 220 218 218 220 220 218 217 218 220 221 223 225 227 229 229 230 230 229 229 230 230 230 231 233 234 235 237
273 264 276 261 177 35 328 279 180 156 176 212 225 192 142 357 2 11 17 61 69 43 46 65 97 146 108 51 22 8 11 31 35 29 26 24 25 25 23 14 355 357 13 19 16 6 306 257 236 239 242 227 218 213 209 213 217 221 222 222 221 221 219 220 221 219 218 219 221 222 223 225 228 230 231 231 231 232 232 232 232 231 230 232 234 235 236
261 253 265 263 122 11 334 347 37 33 192 189 198 195 317 337 349 16 31 47 48 41 46 51 43 28 14 7 3 2 9 21 22 19 18 16 15 11 4 4 4 9 19 19 10 354 324 305 300 294 280 254 230 218 212 213 216 221 226 225 223 221 219 219 221 221 219 219 221 223 224 225 228 230 231 231 231 231 231 232 232 232 230 230 232 234 236
260 255 264 250 121 356 334 4 31 17 359 179 173 331 333 348 4 16 32 50 45 37 40 32 16 8 2 3 10 9 8 11 10 8 9 9 10 7 5 9 10 11 12 6 0 357 345 337 338 324 312 290 250 225 216 218 217 218 225 229 225 222 219 217 218 220 220 219 221 223 224 225 227 228 229 230 229 229 229 229 231 232 231 230 230 232 236
255 247 254 244 172 352 350 13 35 21 20 100 33 354 354 16 23 19 25 38 34 30 38 26 8 4 3 6 12 7 4 5 4 4 5 4 3 3 5 5 1 2 5 359 358 360 347 325 299 276 284 297 265 233 219 221 217 212 218 228 227 220 217 216 216 218 221 220 220 222 224 224 226 227 227 228 226 226 226 226 228 230 231 231 230 232 235
234 234 245 347 246 318 8 38 55 37 40 48 38 21 12 19 22 19 21 23 17 21 30 19 5 4 4 6 5 360 357 359 360 1 1 359 357 356 357 355 351 355 359 356 358 3 355 345 328 285 157 62 241 209 205 207 202 201 205 214 225 220 215 215 214 215 219 221 220 222 222 223 225 226 226 226 224 224 224 224 225 228 230 231 232 233 236
265 266 277 331 291 293 27 50 53 40 34 37 40 35 23 16 15 17 16 10 7 12 13 7 5 1 358 0 357 352 352 352 353 355 354 354 353 352 351 348 346 351 354 348 355 11 12 7 5 126 124 118 168 187 197 198 191 193 197 199 211 215 211 212 213 212 216 220 220 220 219 221 223 223 223 224 223 222 223 223 224 226 228 231 233 235 238
297 284 253 257 285 324 22 26 21 15 14 25 37 31 17 9 5 7 9 2 358 360 360 3 5 352 348 352 350 347 348 346 346 348 348 349 349 346 348 345 341 350 355 346 355 12 12 16 20 137 147 144 170 186 200 203 195 191 190 192 202 204 200 204 209 208 211 216 218 217 217 219 221 222 221 221 220 221 222 223 225 227 228 229 233 236 239
293 281 230 258 309 348 13 6 351 335 343 20 40 29 10 359 351 352 360 356 352 353 355 3 6 350 343 346 344 344 347 347 346 343 341 348 351 347 346 346 343 348 348 347 12 18 6 20 23 13 198 208 220 205 195 203 206 196 183 175 188 194 189 195 205 206 207 210 213 215 215 215 217 219 219 217 217 219 220 221 224 226 226 227 230 233 238
269 273 288 304 310 317 328 328 312 308 323 357 25 18 2 349 340 346 352 350 351 351 347 350 355 346 340 342 339 340 347 349 346 339 334 341 345 343 345 345 343 353 356 354 18 15 1 23 28 19 2 337 302 236 191 153 155 199 192 172 171 187 188 193 204 207 205 206 208 211 210 210 212 216 216 212 213 218 221 219 221 224 226 228 231 232 236
270 272 276 282 288 289 282 274 279 300 322 334 341 352 355 345 337 342 345 343 345 345 343 345 346 338 339 345 340 337 343 345 341 339 338 339 338 343 355 357 350 352 18 30 38 29 20 38 43 29 27 48 42 23 169 157 140 159 186 177 174 184 187 193 203 206 202 200 203 207 209 208 206 210 215 214 212 217 220 219 219 224 226 227 229 230 233
264 262 266 279 292 282 268 273 301 333 346 333 322 328 341 342 337 337 337 336 335 335 339 344 343 337 337 339 333 332 340 343 336 334 339 345 346 347 1 18 29 51 60 35 35 39 42 55 70 57 39 43 51 55 101 143 139 132 155 171 174 175 178 187 193 194 198 201 200 200 206 206 199 201 210 210 206 211 217 217 219 224 225 225 223 221 222
269 273 286 313 330 317 296 296 309 328 336 326 315 315 322 329 332 332 332 331 330 329 331 335 337 334 331 328 324 325 332 336 333 332 335 347 1 5 359 16 45 65 76 72 67 69 71 69 70 71 63 54 53 74 108 132 146 154 162 168 166 165 168 170 170 177 187 188 182 186 194 189 183 191 203 203 198 205 212 214 218 223 227 232 237 238 239
276 276 285 301 310 302 298 300 300 308 318 313 304 304 309 315 318 319 317 317 320 321 322 325 329 330 326 322 316 310 312 324 334 340 349 354 356 12 19 14 31 63 73 87 94 93 97 94 80 75 77 70 63 69 90 114 135 153 168 176 167 164 167 165 161 169 169 153 154 172 186 177 164 170 183 190 194 205 213 217 222 224 227 233 239 244 250
274 274 280 287 287 285 289 290 287 289 294 292 290 293 298 303 306 307 305 305 308 309 309 312 317 320 320 319 310 296 290 298 309 320 352 43 32 29 60 69 94 130 139 135 121 109 107 107 99 92 86 78 75 74 80 106 129 142 156 173 175 173 178 177 170 169 168 155 151 165 180 182 174 168 161 157 163 188 216 231 239 241 241 243 244 247 251
278 275 274 276 276 275 275 274 273 274 274 273 275 279 285 291 294 295 296 297 298 298 298 300 303 305 308 311 309 296 278 263 257 260 114 102 87 83 102 104 103 120 128 124 124 121 112 104 102 100 95 92 91 85 69 79 107 122 132 144 142 133 155 175 179 179 182 179 174 176 181 188 196 198 188 177 171 165 166 204 244 251 251 249 247 249 252
278 272 268 267 267 265 263 262 265 269 271 270 267 267 272 280 283 284 286 286 286 286 286 288 293 295 297 299 298 291 273 250 228 204 166 131 106 93 102 113 112 111 111 108 109 111 107 101 101 105 108 107 104 99 83 66 74 84 92 103 104 97 105 139 163 170 170 165 166 172 171 164 161 162 163 171 178 164 142 125 108 89 269 253 241 239 248
273 267 260 256 256 258 261 264 266 267 266 266 267 268 270 269 268 270 275 280 281 279 275 278 284 286 284 287 287 275 254 243 227 204 173 135 118 107 103 108 111 110 109 106 100 98 101 103 103 107 110 107 102 102 103 101 98 95 91 88 86 84 88 104 123 131 129 128 132 137 134 124 119 116 112 110 116 125 131 135 128 113 344 282 270 259 254
262 259 255 252 251 253 256 260 263 264 261 259 262 269 269 263 259 258 262 270 275 270 264 270 279 282 278 280 285 273 245 228 209 184 160 136 124 116 106 101 101 103 106 102 95 94 98 98 99 102 102 101 100 99 99 116 124 117 111 107 99 91 92 98 104 108 110 112 117 120 116 110 106 105 103 103 104 104 105 133 124 104 14 326 318 286 264
254 251 251 250 249 247 247 248 249 251 252 251 253 260 262 259 255 253 252 259 266 261 254 260 271 281 281 271 274 276 248 203 172 159 147 132 122 118 114 110 104 98 94 88 78 76 83 93 103 103 93 90 101 101 97 104 112 103 96 101 108 107 103 98 97 100 100 97 96 99 98 94 92 90 88 88 95 98 82 56 83 82 24 353 347 295 279
251 248 246 246 245 243 242 243 243 243 245 245 247 250 252 252 252 248 240 245 256 254 246 248 257 269 274 258 239 263 228 167 151 147 142 133 126 120 117 115 107 97 92 88 81 75 73 78 105 109 90 81 96 100 96 93 90 81 73 75 89 107 109 100 95 97 92 84 83 86 88 87 86 90 90 82 80 96 101 79 77 95 16 339 314 304 308
244 247 244 240 237 237 238 239 240 241 241 240 240 242 244 248 250 245 235 238 251 252 243 238 240 245 250 240 187 150 144 125 115 115 120 122 123 120 112 106 101 96 93 92 89 82 73 63 60 92 108 101 98 98 94 87 83 84 83 77 82 101 108 103 101 98 93 96 99 92 87 88 78 78 92 87 63 68 108 49 301 294 338 328 318 326 340
231 237 237 232 230 232 234 234 234 236 237 237 237 237 238 241 243 241 236 240 247 244 237 232 229 228 228 217 184 158 129 104 92 87 89 95 102 105 103 98 93 88 86 89 93 91 82 70 57 51 75 103 106 102 95 86 80 86 90 85 92 111 113 109 106 96 88 99 105 88 81 88 67 56 78 76 31 15 29 13 1 358 347 344 349 353 351
230 233 236 233 228 228 231 233 234 235 236 237 237 237 235 235 237 236 234 237 238 235 228 223 217 210 203 189 174 156 127 110 102 93 87 88 92 96 96 93 90 87 86 90 93 91 87 83 74 59 57 80 101 104 94 81 73 77 80 78 99 131 127 111 102 93 83 84 89 86 93 100 75 59 67 54 22 25 24 8 4 3 351 348 355 354 348
12 245 241 240 237 235 235 235 234 234 235 235 235 235 232 230 230 228 229 232 230 222 213 207 200 189 173 156 147 137 124 117 110 101 94 92 90 90 91 92 91 88 83 81 85 87 87 89 86 73 64 78 96 99 92 82 77 78 74 66 71 91 100 89 89 91 85 79 78 82 88 89 85 87 81 64 51 50 40 27 26 21 5 355 350 349 353
43 47 46 30 263 241 240 238 235 236 239 239 237 234 228 223 223 224 226 226 222 215 210 202 183 161 143 134 128 121 116 117 114 106 100 97 93 92 93 91 88 84 75 68 71 83 90 91 86 75 69 79 94 101 98 93 89 89 84 76 73 78 77 70 70 76 76 70 66 71 73 65 65 81 74 62 59 63 58 55 56 38 19 4 347 338 347
43 48 49 50 56 65 72 221 224 226 231 230 227 222 214 210 212 216 216 214 212 211 205 184 152 135 125 118 115 111 110 113 113 108 105 105 105 104 98 88 78 70 62 58 65 80 85 83 79 72 69 76 91 101 102 98 93 88 83 80 81 83 80 74 71 71 70 67 66 71 72 65 60 62 62 59 61 66 62 67 66 44 22 354 321 321 334
41 44 46 49 53 58 58 62 77 95 104 128 175 192 195 196 200 207 209 208 205 195 176 148 131 125 115 106 105 104 104 107 110 106 102 102 104 100 90 79 70 64 60 61 73 86 86 84 82 76 69 70 83 96 99 96 91 86 81 79 81 82 80 77 74 72 69 66 64 64 66 67 66 66 64 63 62 50 32 23 18 9 1 353 350 352 352
38 40 43 45 47 49 52 56 64 72 72 71 77 101 137 154 154 151 152 152 155 154 143 128 119 116 109 102 99 97 95 96 99 97 92 90 90 88 81 74 73 76 78 79 85 89 89 91 91 84 71 63 68 82 93 95 93 89 84 79 78 77 76 76 74 71 68 67 63 59 60 63 66 66 63 59 58 52 42 33 23 19 24 27 27 22 11
42 42 43 44 44 45 46 50 57 63 65 65 69 77 88 94 95 99 106 112 120 127 128 123 116 111 109 106 103 101 98 95 92 90 88 87 86 84 77 72 73 80 85 86 88 89 91 93 93 88 80 72 67 67 73 81 86 86 83 79 77 76 75 73 70 68 68 67 63 57 55 59 63 64 64 62 61 60 58 55 50 46 42 38 32 24 13
48 48 47 46 46 45 44 47 53 58 59 59 62 66 72 78 80 79 79 82 86 96 108 112 109 104 103 105 104 104 102 99 95 93 93 90 85 79 71 65 64 71 79 82 83 87 89 89 87 86 86 85 80 75 73 74 77 81 83 85 86 84 79 73 68 67 69 70 67 61 59 59 60 60 60 60 60 59 60 61 58 53 49 46 43 37 30
47 50 51 50 48 48 47 47 52 56 57 57 59 61 65 71 74 72 72 72 72 76 87 96 97 95 95 97 97 95 92 90 88 87 85 83 80 76 72 66 61 66 77 83 82 82 82 82 79 78 82 87 89 89 88 86 82 79 78 82 86 86 81 74 69 67 67 68 67 67 66 64 60 57 55 54 54 54 54 54 53 52 52 54 54 50 42
45 48 51 53 52 51 50 50 53 55 55 56 58 60 62 66 69 69 69 69 67 66 72 80 84 85 85 86 87 86 84 81 80 78 76 74 72 72 73 71 67 68 76 81 81 78 77 75 71 70 73 81 89 93 94 92 87 82 79 81 83 84 82 79 76 74 70 66 63 62 62 62 60 58 57 56 54 51 48 46 45 45 46 49 50 49 46
47 48 51 54 55 54 53 54 55 56 56 58 60 61 62 64 66 67 67 67 66 65 66 70 74 76 76 76 76 77 76 76 76 75 72 69 64 60 60 63 68 72 77 79 78 76 73 72 71 71 70 71 75 83 88 87 84 81 81 81 81 82 84 84 81 79 77 73 68 64 61 60 58 57 56 56 55 55 52 49 46 44 43 43 44 44 44
44 47 50 54 55 56 56 56 57 58 60 61 62 62 63 65 66 66 67 67 66 65 66 68 70 72 73 72 71 71 70 71 73 72 70 66 61 56 51 48 50 59 71 78 78 75 72 69 70 72 72 69 68 71 75 77 77 78 79 78 75 76 79 80 77 75 76 77 75 71 66 63 61 58 55 53 54 54 53 51 50 47 45 43 43 42 42
37 41 46 50 54 56 57 58 59 60 61 62 63 63 64 65 66 66 66 67 68 68 68 68 69 69 70 71 70 69 68 67 67 68 70 71 71 69 64 53 43 44 59 75 78 76 73 70 68 67 68 70 71 70 71 72 73 74 73 71 69 68 68 69 69 71 74 76 75 72 70 68 66 64 60 57 54 51 49 47 45 43 43 43 44 43 42
35 37 40 43 48 52 56 58 59 58 58 60 63 64 63 63 64 65 65 65 66 67 68 70 71 71 71 71 71 70 70 69 66 65 66 71 77 81 79 70 57 48 53 68 77 76 72 69 66 63 61 62 65 66 66 68 70 71 70 69 67 65 63 62 63 65 69 71 71 71 71 70 68 65 63 60 56 54 52 48 42 35 32 34 38 41 42
35 38 39 39 41 44 47 50 53 54 54 56 60 62 61 60 61 62 64 65 65 63 63 64 66 67 68 70 70 68 66 66 64 60 57 59 64 69 74 79 74 62 55 63 77 81 76 70 66 61 58 58 58 58 58 60 62 64 66 66 64 61 60 60 60 59 60 62 64 63 58 53 52 56 59 57 53 52 52 54 52 46 37 29 29 32 35
30 34 38 39 40 42 43 45 46 48 50 52 55 58 60 60 58 56 58 61 63 62 60 57 55 55 56 59 62 62 61 62 64 62 58 55 57 58 59 64 67 64 57 57 66 79 85 81 72 63 58 57 57 57 58 58 58 58 59 61 63 64 63 60 59 59 57 55 54 51 44 36 35 39 42 38 35 36 39 41 44 48 49 44 37 31 28
29 31 33 36 38 40 42 46 46 46 47 49 51 52 54 56 57 58 59 59 58 58 59 59 56 53 50 50 50 51 53 56 61 63 61 57 56 56 57 58 59 60 59 57 55 60 74 81 75 65 58 55 56 56 56 56 56 56 54 56 64 73 72 64 58 58 58 54 50 50 50 47 47 51 51 45 39 40 43 39 31 30 38 47 47 43 37
34 35 33 34 36 35 36 41 45 46 44 45 45 45 45 45 47 54 62 65 61 55 55 58 59 57 53 49 47 46 47 49 54 58 59 58 56 55 57 59 60 60 61 61 57 52 56 65 69 64 58 55 55 56 57 56 56 56 54 52 56 67 71 65 57 54 55 53 50 49 50 50 51 54 57 52 43 37 39 38 31 26 29 34 36 36 39
41 44 37 33 36 36 32 31 34 38 41 42 42 42 43 43 40 39 45 52 56 55 55 57 58 56 52 48 47 47 47 50 54 55 55 57 58 57 56 58 60 60 60 62 61 57 55 58 60 60 58 57 57 58 59 59 58 58 58 57 55 56 60 62 59 56 54 53 52 49 48 49 49 48 46 43 38 34 33 32 30 29 31 32 29 24 23